Location: Aldenham
(51.6667°N, 0.3500°W)
Time: 19:11:44
(UTC+00:00)

Altair - Pass Details

Date: 22 February 2026
Orbit: 1502 x 1682 km, 47.2° (Epoch: 10 March)

Event Time Altitude Azimuth Distance (km) Brightness Sun altitude
Rises 09:31:07 0° 286° (WNW) 4,694 9.5 18.9°
Reaches altitude 10° 09:34:26 10° 278° (W) 3,731 9.2 19.2°
Maximum altitude 09:42:42 36° 216° (SW) 2,320 8.8 20.1°
Drops below altitude 10° 09:51:14 10° 155° (SSE) 3,845 11.4 20.9°
Sets 09:54:43 0° 147° (SSE) 4,854 11.7 21.2°
